When you browse on this site, cookies collect data to enhance your experience and personalize the content and advertising you see.
Visit our Privacy Policy to learn more. By continuing to use the site, you agree to this use of cookies and data.
  • în România
  • Lista ţărilor
  • Pe 7 zile
  • Temperatura apei
  • Hartă satelitară
  • Meteo pe hartă
  • Widget-uri
  • user-avatar
    Intrare

    Meteo pe oră la Moquegua

    Astăzi, 16 Iulie, Marţi

    Timp Temperatura Precipitaţii Vânt Presiune Umiditate
    00:00 +12°C° 0 mm 0 m/s 641 mmHg 60%
    01:00 +11°C° 0 mm 0 m/s 641 mmHg 63%
    02:00 +11°C° 0 mm 0 m/s 641 mmHg 62%
    03:00 +11°C° 0 mm 0 m/s 641 mmHg 62%
    04:00 +11°C° 0 mm 0 m/s 641 mmHg 62%
    05:00 +12°C° 0 mm 0 m/s 641 mmHg 56%
    06:00 +13°C° 0 mm 0 m/s 642 mmHg 50%
    07:00 +15°C° 0 mm 0 m/s 643 mmHg 39%
    08:00 +20°C° 0 mm 1 m/s 644 mmHg 33%
    09:00 +21°C° 0 mm 2 m/s 645 mmHg 26%
    10:00 +25°C° 0 mm 2 m/s 646 mmHg 20%
    11:00 +26°C° 0 mm 3 m/s 645 mmHg 19%
    12:00 +26°C° 0 mm 3 m/s 645 mmHg 19%
    13:00 +27°C° 0 mm 3 m/s 644 mmHg 18%
    14:00 +26°C° 0 mm 3 m/s 644 mmHg 22%
    15:00 +25°C° 0 mm 3 m/s 644 mmHg 25%
    16:00 +24°C° 0 mm 3 m/s 643 mmHg 29%
    17:00 +20°C° 0 mm 2 m/s 643 mmHg 38%
    18:00 +19°C° 0 mm 1 m/s 643 mmHg 48%
    19:00 +14°C° 0 mm 0 m/s 642 mmHg 57%
    20:00 +13°C° 0 mm 0 m/s 642 mmHg 57%
    21:00 +13°C° 0 mm 0 m/s 643 mmHg 57%
    22:00 +13°C° 0 mm 0 m/s 643 mmHg 57%
    23:00 +12°C° 0 mm 0 m/s 643 mmHg 57%

    Mâine, 17 Iulie, Miercuri

    Timp Temperatura Precipitaţii Vânt Presiune Umiditate
    00:00 +12°C° 0 mm 0 m/s 642 mmHg 58%
    01:00 +12°C° 0 mm 0 m/s 642 mmHg 58%
    02:00 +12°C° 0 mm 0 m/s 642 mmHg 57%
    03:00 +12°C° 0 mm 0 m/s 641 mmHg 56%
    04:00 +12°C° 0 mm 0 m/s 641 mmHg 55%
    05:00 +13°C° 0 mm 0 m/s 642 mmHg 47%
    06:00 +14°C° 0 mm 0 m/s 643 mmHg 39%
    07:00 +15°C° 0 mm 0 m/s 643 mmHg 30%
    08:00 +20°C° 0 mm 1 m/s 644 mmHg 26%
    09:00 +23°C° 0 mm 2 m/s 646 mmHg 21%
    10:00 +26°C° 0 mm 2 m/s 647 mmHg 16%
    11:00 +26°C° 0 mm 3 m/s 646 mmHg 18%
    12:00 +26°C° 0 mm 3 m/s 646 mmHg 19%
    13:00 +27°C° 0 mm 4 m/s 646 mmHg 20%
    14:00 +26°C° 0 mm 4 m/s 645 mmHg 22%
    15:00 +25°C° 0 mm 3 m/s 645 mmHg 25%
    16:00 +24°C° 0 mm 3 m/s 644 mmHg 28%
    17:00 +21°C° 0 mm 2 m/s 644 mmHg 33%
    18:00 +21°C° 0 mm 1 m/s 644 mmHg 38%
    19:00 +17°C° 0 mm 0 m/s 644 mmHg 43%
    20:00 +19°C° 0 mm 1 m/s 644 mmHg 39%
    21:00 +20°C° 0 mm 1 m/s 645 mmHg 35%
    22:00 +20°C° 0 mm 1 m/s 645 mmHg 31%
    23:00 +19°C° 0 mm 1 m/s 645 mmHg 34%

    Poimâine, 18 Iulie, Joi

    Timp Temperatura Precipitaţii Vânt Presiune Umiditate
    00:00 +19°C° 0 mm 1 m/s 645 mmHg 37%
    01:00 +17°C° 0 mm 2 m/s 644 mmHg 40%
    02:00 +16°C° 0 mm 1 m/s 644 mmHg 44%
    03:00 +16°C° 0 mm 1 m/s 644 mmHg 48%
    04:00 +15°C° 0 mm 1 m/s 643 mmHg 52%
    05:00 +16°C° 0 mm 1 m/s 644 mmHg 48%
    06:00 +18°C° 0 mm 1 m/s 644 mmHg 43%
    07:00 +19°C° 0 mm 1 m/s 645 mmHg 39%
    08:00 +21°C° 0 mm 1 m/s 646 mmHg 33%
    09:00 +24°C° 0 mm 2 m/s 646 mmHg 26%
    10:00 +27°C° 0 mm 2 m/s 647 mmHg 20%
    11:00 +28°C° 0 mm 3 m/s 647 mmHg 20%
    12:00 +28°C° 0 mm 3 m/s 646 mmHg 19%
    13:00 +29°C° 0 mm 4 m/s 646 mmHg 19%
    14:00 +28°C° 0 mm 4 m/s 645 mmHg 21%
    15:00 +27°C° 0 mm 3 m/s 645 mmHg 23%
    16:00 +26°C° 0 mm 3 m/s 644 mmHg 25%
    17:00 +24°C° 0 mm 2 m/s 644 mmHg 32%
    18:00 +21°C° 0 mm 1 m/s 643 mmHg 39%
    19:00 +18°C° 0 mm 1 m/s 642 mmHg 46%
    20:00 +16°C° 0 mm 0 m/s 643 mmHg 48%
    21:00 +15°C° 0 mm 0 m/s 643 mmHg 51%
    22:00 +15°C° 0 mm 0 m/s 643 mmHg 53%
    23:00 +15°C° 0 mm 0 m/s 642 mmHg 54%

    19 Iulie, Vineri

    Timp Temperatura Precipitaţii Vânt Presiune Umiditate
    00:00 +14°C° 0 mm 0 m/s 642 mmHg 55%
    01:00 +14°C° 0 mm 0 m/s 641 mmHg 55%
    02:00 +14°C° 0 mm 0 m/s 641 mmHg 55%
    03:00 +13°C° 0 mm 0 m/s 641 mmHg 55%
    04:00 +13°C° 0 mm 0 m/s 640 mmHg 55%
    05:00 +14°C° 0 mm 0 m/s 641 mmHg 47%
    06:00 +16°C° 0 mm 0 m/s 642 mmHg 39%
    07:00 +19°C° 0 mm 1 m/s 642 mmHg 31%
    08:00 +22°C° 0 mm 1 m/s 643 mmHg 26%
    09:00 +25°C° 0 mm 2 m/s 644 mmHg 22%
    10:00 +28°C° 0 mm 2 m/s 645 mmHg 17%
    11:00 +28°C° 0 mm 3 m/s 645 mmHg 17%
    12:00 +29°C° 0 mm 3 m/s 644 mmHg 17%
    13:00 +29°C° 0 mm 4 m/s 644 mmHg 17%
    14:00 +28°C° 0 mm 4 m/s 643 mmHg 20%
    15:00 +27°C° 0 mm 3 m/s 643 mmHg 22%
    16:00 +26°C° 0 mm 3 m/s 642 mmHg 25%
    17:00 +24°C° 0 mm 2 m/s 642 mmHg 32%
    18:00 +21°C° 0 mm 1 m/s 642 mmHg 40%
    19:00 +16°C° 0 mm 0 m/s 641 mmHg 48%
    20:00 +16°C° 0 mm 0 m/s 641 mmHg 49%
    21:00 +15°C° 0 mm 0 m/s 642 mmHg 51%
    22:00 +15°C° 0 mm 0 m/s 642 mmHg 53%
    23:00 +15°C° 0 mm 0 m/s 642 mmHg 53%

    20 Iulie, Sâmbătă

    Timp Temperatura Precipitaţii Vânt Presiune Umiditate
    00:00 +15°C° 0 mm 0 m/s 641 mmHg 54%
    01:00 +14°C° 0 mm 0 m/s 641 mmHg 54%
    02:00 +14°C° 0 mm 0 m/s 641 mmHg 55%
    03:00 +14°C° 0 mm 0 m/s 640 mmHg 55%
    04:00 +13°C° 0 mm 0 m/s 640 mmHg 56%
    05:00 +16°C° 0 mm 1 m/s 641 mmHg 48%
    06:00 +18°C° 0 mm 1 m/s 641 mmHg 40%
    07:00 +19°C° 0 mm 1 m/s 642 mmHg 33%
    08:00 +22°C° 0 mm 1 m/s 643 mmHg 28%
    09:00 +25°C° 0 mm 2 m/s 644 mmHg 23%
    10:00 +28°C° 0 mm 2 m/s 645 mmHg 18%
    11:00 +28°C° 0 mm 3 m/s 645 mmHg 18%
    12:00 +28°C° 0 mm 3 m/s 644 mmHg 18%
    13:00 +28°C° 0 mm 4 m/s 644 mmHg 19%
    14:00 +27°C° 0 mm 4 m/s 644 mmHg 21%
    15:00 +27°C° 0 mm 3 m/s 643 mmHg 23%
    16:00 +26°C° 0 mm 3 m/s 643 mmHg 25%
    17:00 +23°C° 0 mm 2 m/s 642 mmHg 34%
    18:00 +20°C° 0 mm 1 m/s 642 mmHg 42%
    19:00 +15°C° 0 mm 0 m/s 641 mmHg 51%
    20:00 +15°C° 0 mm 0 m/s 642 mmHg 51%
    21:00 +15°C° 0 mm 0 m/s 642 mmHg 51%
    22:00 +14°C° 0 mm 0 m/s 642 mmHg 52%
    23:00 +14°C° 0 mm 0 m/s 642 mmHg 53%

    21 Iulie, Duminică

    Timp Temperatura Precipitaţii Vânt Presiune Umiditate
    00:00 +14°C° 0 mm 0 m/s 642 mmHg 54%
    01:00 +14°C° 0 mm 0 m/s 641 mmHg 55%
    02:00 +13°C° 0 mm 0 m/s 641 mmHg 56%
    03:00 +13°C° 0 mm 0 m/s 641 mmHg 57%
    04:00 +12°C° 0 mm 0 m/s 640 mmHg 58%
    05:00 +13°C° 0 mm 0 m/s 641 mmHg 52%
    06:00 +14°C° 0 mm 0 m/s 642 mmHg 45%
    07:00 +16°C° 0 mm 0 m/s 643 mmHg 39%
    08:00 +20°C° 0 mm 1 m/s 643 mmHg 33%
    09:00 +23°C° 0 mm 2 m/s 644 mmHg 28%
    10:00 +25°C° 0 mm 2 m/s 645 mmHg 22%
    11:00 +26°C° 0 mm 3 m/s 645 mmHg 21%
    12:00 +27°C° 0 mm 3 m/s 644 mmHg 21%
    13:00 +27°C° 0 mm 4 m/s 644 mmHg 20%
    14:00 +26°C° 0 mm 3 m/s 644 mmHg 24%
    15:00 +24°C° 0 mm 3 m/s 643 mmHg 29%
    16:00 +22°C° 0 mm 3 m/s 642 mmHg 34%
    17:00 +20°C° 0 mm 2 m/s 642 mmHg 41%
    18:00 +18°C° 0 mm 1 m/s 642 mmHg 49%
    19:00 +14°C° 0 mm 0 m/s 642 mmHg 56%
    20:00 +14°C° 0 mm 0 m/s 642 mmHg 57%
    21:00 +13°C° 0 mm 0 m/s 642 mmHg 58%
    22:00 +13°C° 0 mm 0 m/s 643 mmHg 59%
    23:00 +13°C° 0 mm 0 m/s 642 mmHg 58%
    Arată mai mult